Regional Weather Roundup
Issued by NWS

Home | Current Version | Previous Version | Graphics & Text | Print | Product List | Glossary On
Versions: 1 2 3 4 5 6 7 8 9 10 11 12 13 14 15 16 17 18 19 20 21 22 23 24 25 26 27 28 29 30 31 32 33 34 35 36 37 38 39 40 41 42 43 44 45 46 47 48 49 50
000
ASUS43 KFSD 271010
RWRSD

WEATHER ROUNDUP FOR SOUTH DAKOTA
NATIONAL WEATHER SERVICE SIOUX FALLS SD
500 AM CDT TUE SEP 27 2016

NOTE: "FAIR" INDICATES FEW OR NO CLOUDS BELOW 12,000 FEET WITH NO
SIGNIFICANT WEATHER AND/OR OBSTRUCTIONS TO VISIBILITY.


SDZ001>005-009-010-012>017-271100-
NORTHWEST AND NORTH CENTRAL SOUTH DAKOTA

CITY           SKY/WX    TMP DP  RH WIND       PRES   REMARKS
BUFFALO          N/A     53  43  68 W3        30.02F
MOBRIDGE       CLEAR     42  36  79 N3        30.01F
$$

SDZ012>016-024>037-041>051-057-063-072>074-271100-
SOUTHWEST AND SOUTH CENTRAL SOUTH DAKOTA

CITY           SKY/WX    TMP DP  RH WIND       PRES   REMARKS
RAPID CTY ARPT CLEAR     45  39  79 CALM      30.12F
PIERRE         CLEAR     46  38  73 SW8       30.05S
CUSTER         CLEAR     50  39  66 W3        30.21F
ELLSWORTH AFB  CLEAR     48  41  76 SW6       30.10F
PHILIP         CLEAR     44  39  82 W9        30.09F
PINE RIDGE     CLOUDY    34  33  96 CALM      30.15F
WINNER         FAIR      49  40  71 SW7       30.09S HAZE
$$

SDZ004>011-016>023-039-040-271100-
NORTHEAST SOUTH DAKOTA

CITY           SKY/WX    TMP DP  RH WIND       PRES   REMARKS
ABERDEEN       CLEAR     43  36  76 W6        30.00S
WATERTOWN      CLEAR     47  37  68 W7        29.99S
BROOKINGS      CLEAR     44  36  73 CALM      29.99S
SISSETON         N/A     47  35  63 NW8       29.95R
$$

SDZ017-020-022-023-036>040-048>070-271100-
SOUTHEAST SOUTH DAKOTA

CITY           SKY/WX    TMP DP  RH WIND       PRES   REMARKS
SIOUX FALLS    CLEAR     46  37  71 W5        30.02S
HURON          CLEAR     42  35  76 W6        30.02F
CHAMBERLAIN    CLEAR     46  42  86 W3        30.06F
MITCHELL       CLEAR     48  37  65 W8        30.04S
YANKTON        CLEAR     48  37  66 CALM      30.03S
$$

ABBREVIATIONS USED IN REMARKS
   TC - TEMPERATURE IN CELSIUS
  WCI - WIND CHILL INDEX
   HX - HEAT INDEX
  VSB - VISIBILITY





USA.gov is the U.S. government's official web portal to all federal, state and local government web resources and services.